Probability
0 6 52 48 55 48 55 55 42 32 35 42 45 42 45 48 45 55 55 52 45 45 48 52 48 52 42 42 48 58 65 58 58 45 48 52 58 61 61 65 71 71 77
0 10 55 55 58 52 48 48 39 42 35 35 35 42 42 45 55 58 58 48 48 42 48 39 42 45 39 42 48 55 48 45 45 32 29 35 48 55 58 65 52 48 58
13 23 39 48 58 52 48 52 52 45 39 39 39 48 42 42 32 35 58 45 39 39 32 35 32 29 39 42 45 48 52 35 35 29 23 6 29 45 48 55 55 45 55
13 19 29 52 48 55 58 48 45 45 42 35 42 45 45 35 39 42 48 39 45 39 35 35 35 29 32 29 29 35 39 32 29 23 13 6 13 35 42 39 48 48 45
13 19 35 58 55 58 39 42 45 45 39 39 42 39 39 32 29 32 26 29 32 32 32 32 35 32 32 32 29 26 29 32 32 13 0 3 10 26 42 42 39 35 48
10 16 45 61 55 48 42 39 42 39 42 35 35 45 45 39 32 23 23 23 29 32 32 29 29 26 29 29 32 23 26 26 6 0 0 3 10 23 29 32 42 39 32
6 19 32 52 45 39 35 32 45 42 42 35 39 35 32 35 29 29 26 23 26 29 32 29 29 35 32 29 29 32 26 26 0 0 0 3 16 32 32 32 35 39 29
10 16 23 42 52 35 32 29 35 42 26 32 35 29 32 29 26 26 26 19 26 29 35 32 26 26 19 23 26 26 26 16 3 3 3 6 26 35 29 32 35 32 26
10 10 13 26 26 29 39 32 42 32 32 35 39 42 23 23 16 13 16 19 16 19 19 16 23 26 23 23 26 23 23 6 0 3 10 10 23 32 19 16 23 26 19
10 10 10 6 6 10 13 29 39 35 35 39 35 35 23 19 16 13 13 16 19 16 16 16 26 26 23 16 19 16 10 3 0 0 0 13 23 19 16 16 13 19 16
6 6 6 6 6 6 6 16 16 19 19 23 16 26 6 3 3 6 10 23 23 23 23 23 16 13 10 10 13 13 3 0 0 0 3 13 16 19 16 13 10 13 16
0 6 6 6 6 6 6 0 0 0 0 0 0 0 0 0 0 3 6 10 10 6 10 6 13 6 3 0 3 0 0 0 0 0 3 16 19 13 10 16 10 3 6
0 3 3 3 3 3 3 0 0 0 0 0 0 0 0 0 0 0 0 0 0 0 0 0 3 0 0 0 0 0 0 0 0 0 0 19 16 16 10 6 6 6 3
0 0 0 0 0 0 0 0 0 0 0 0 0 0 0 0 0 0 0 0 0 0 0 0 0 0 0 0 0 0 0 0 0 0 0 6 13 13 16 6 6 6 6
0 0 0 0 0 0 0 0 0 0 0 0 0 0 0 0 0 0 0 0 0 0 0 0 0 0 0 0 0 0 0 0 0 0 0 6 10 10 10 10 10 6 3
0 0 0 0 0 0 0 0 0 0 0 0 0 0 0 0 0 0 0 0 0 0 0 0 0 0 0 0 0 0 0 0 0 0 0 0 6 6 6 10 6 3 6
0 0 0 0 0 0 0 0 0 0 0 0 0 0 0 0 0 0 0 0 0 0 0 0 0 0 0 0 0 0 0 0 0 0 0 0 0 3 3 3 6 0 3
0 0 0 0 0 0 0 0 0 0 0 0 0 0 0 0 0 0 0 0 0 0 0 0 0 0 0 0 0 0 0 0 0 0 0 0 0 0 0 0 3 3 0
0 0 0 0 0 0 0 0 0 0 0 0 0 0 0 0 0 0 0 0 0 0 0 0 0 0 0 0 0 0 0 0 0 0 0 0 0 0 0 0 0 3 3
0 0 0 0 0 0 0 0 0 0 0 0 0 0 0 0 0 0 0 0 0 0 0 0 0 0 0 0 0 0 0 0 0 0 0 0 0 0 0 0 0 0 0
3 3 0 0 0 0 0 0 0 0 0 0 0 0 0 0 0 0 0 0 0 0 0 0 0 0 0 0 0 0 0 0 0 0 0 0 0 0 0 0 0 0 0
3 0 0 0 0 0 0 0 0 0 0 0 0 0 0 0 0 0 0 0 0 0 0 0 0 0 0 0 0 0 0 0 0 0 0 0 0 0 0 0 0 0 0
3 0 0 0 0 0 0 0 0 0 0 0 0 0 0 0 0 0 0 0 0 0 0 0 0 0 0 0 0 0 0 0 0 0 0 0 0 0 0 0 0 0 0
0 0 0 0 0 0 0 0 0 0 0 0 0 0 0 0 0 0 0 0 0 0 0 0 0 0 0 0 0 0 0 0 0 0 0 0 0 0 0 0 0 0 0
0 0 0 0 0 0 0 0 0 0 0 0 0 0 0 0 0 0 0 0 0 0 0 0 0 0 0 0 0 0 0 0 0 0 0 0 0 0 0 0 0 0 0
0 0 0 0 0 0 0 0 0 0 0 0 0 0 0 0 0 0 0 0 0 0 0 0 0 0 0 0 0 0 0 0 0 0 0 0 0 0 0 0 0 0 0
Height
5884 5884 5883 5883 5883 5883 5883 5882 5882 5882 5882 5881 5881 5881 5881 5881 5881 5881 5881 5881 5881 5881 5881 5881 5880 5880 5880 5879 5879 5879 5878 5878 5878 5878 5878 5878 5878 5877 5877 5877 5877 5877 5877
5884 5884 5884 5883 5883 5883 5882 5882 5882 5882 5881 5881 5881 5881 5881 5881 5881 5881 5881 5881 5881 5881 5880 5880 5880 5879 5879 5879 5878 5878 5878 5877 5877 5877 5877 5877 5877 5876 5876 5876 5876 5876 5876
5884 5884 5883 5883 5882 5882 5882 5882 5881 5881 5881 5881 5881 5881 5881 5880 5880 5880 5880 5880 5880 5880 5880 5879 5879 5879 5878 5878 5877 5877 5877 5876 5876 5876 5876 5875 5875 5875 5875 5875 5875 5875 5875
5884 5883 5883 5883 5882 5882 5881 5881 5881 5881 5880 5880 5880 5880 5880 5880 5880 5880 5880 5879 5879 5879 5879 5878 5878 5878 5877 5877 5877 5876 5876 5875 5875 5875 5874 5874 5874 5874 5874 5874 5873 5873 5873
5883 5883 5882 5882 5882 5881 5881 5880 5880 5880 5880 5880 5879 5879 5879 5879 5879 5879 5879 5879 5878 5878 5877 5877 5877 5877 5876 5876 5876 5875 5875 5874 5874 5874 5873 5873 5873 5872 5872 5872 5872 5872 5872
5883 5882 5882 5882 5881 5881 5880 5879 5879 5879 5879 5879 5879 5878 5878 5878 5878 5878 5878 5877 5877 5877 5876 5876 5876 5875 5875 5875 5874 5874 5873 5873 5873 5872 5872 5872 5871 5871 5870 5870 5870 5870 5870
5882 5882 5881 5881 5880 5880 5879 5879 5878 5878 5878 5877 5877 5877 5877 5877 5877 5877 5876 5876 5876 5875 5875 5875 5874 5874 5873 5873 5873 5872 5872 5871 5871 5871 5870 5870 5869 5869 5869 5868 5868 5868 5867
5881 5881 5880 5880 5879 5878 5878 5877 5877 5877 5877 5876 5876 5876 5876 5875 5875 5875 5875 5875 5874 5874 5873 5873 5873 5872 5872 5871 5871 5870 5870 5869 5869 5869 5868 5868 5867 5867 5866 5866 5866 5865 5865
5879 5879 5879 5878 5877 5877 5877 5876 5876 5876 5875 5875 5875 5874 5874 5874 5874 5874 5873 5873 5873 5872 5872 5871 5871 5870 5870 5869 5869 5869 5868 5868 5867 5867 5866 5866 5865 5865 5864 5864 5863 5863 5863
5878 5877 5877 5877 5876 5876 5875 5875 5875 5874 5874 5874 5873 5873 5873 5873 5872 5872 5872 5872 5871 5871 5871 5870 5869 5869 5868 5868 5867 5867 5866 5866 5865 5865 5864 5864 5863 5863 5862 5862 5861 5861 5860
5876 5876 5875 5875 5875 5874 5873 5873 5873 5873 5873 5872 5872 5872 5872 5871 5871 5871 5870 5870 5870 5869 5869 5868 5867 5867 5866 5866 5865 5865 5865 5864 5863 5863 5862 5862 5861 5860 5860 5859 5859 5858 5858
5874 5874 5873 5873 5873 5872 5872 5872 5871 5871 5871 5871 5870 5870 5870 5870 5869 5869 5869 5868 5868 5867 5867 5866 5866 5865 5865 5864 5864 5863 5863 5862 5862 5861 5860 5859 5859 5858 5858 5857 5857 5856 5856
5872 5872 5872 5871 5871 5870 5870 5870 5870 5869 5869 5869 5869 5868 5868 5868 5867 5867 5867 5866 5866 5865 5865 5864 5864 5863 5863 5862 5862 5861 5860 5860 5859 5859 5858 5857 5857 5856 5856 5855 5855 5854 5853
5870 5869 5869 5869 5868 5868 5868 5868 5867 5867 5867 5867 5866 5866 5866 5866 5865 5865 5865 5864 5864 5863 5863 5862 5861 5861 5860 5860 5859 5859 5858 5858 5857 5856 5856 5855 5854 5854 5853 5853 5853 5852 5851
5868 5867 5867 5866 5866 5866 5865 5865 5865 5865 5864 5864 5864 5864 5864 5863 5863 5863 5863 5862 5862 5861 5861 5860 5859 5859 5858 5858 5857 5856 5856 5855 5855 5854 5853 5853 5852 5851 5851 5851 5850 5850 5849
5865 5865 5864 5864 5864 5863 5863 5863 5862 5862 5862 5861 5861 5861 5861 5861 5861 5861 5860 5860 5859 5859 5858 5858 5857 5857 5856 5855 5855 5854 5853 5853 5852 5851 5851 5851 5850 5850 5849 5849 5848 5848 5847
5863 5862 5862 5861 5861 5861 5861 5860 5860 5859 5859 5859 5859 5858 5858 5858 5858 5858 5858 5857 5857 5856 5856 5855 5855 5854 5853 5853 5852 5851 5851 5850 5849 5849 5848 5848 5848 5847 5847 5846 5846 5845 5845
5860 5860 5859 5859 5858 5858 5858 5858 5857 5857 5856 5856 5856 5855 5855 5855 5855 5856 5855 5855 5854 5854 5853 5853 5852 5851 5851 5850 5849 5849 5848 5847 5847 5846 5846 5845 5845 5845 5844 5844 5843 5843 5842
5857 5856 5856 5855 5855 5855 5854 5854 5854 5853 5853 5853 5852 5852 5852 5852 5852 5852 5852 5852 5852 5851 5850 5850 5849 5848 5848 5847 5847 5846 5845 5845 5844 5844 5843 5843 5842 5842 5841 5841 5841 5840 5840
5854 5853 5853 5852 5852 5851 5851 5850 5850 5850 5849 5849 5849 5849 5849 5849 5849 5849 5849 5849 5848 5848 5847 5846 5846 5845 5844 5844 5843 5843 5842 5842 5841 5841 5840 5840 5839 5839 5838 5838 5838 5837 5837
5851 5850 5849 5849 5848 5848 5847 5847 5847 5846 5846 5846 5846 5846 5845 5845 5846 5846 5846 5845 5845 5844 5844 5843 5842 5842 5841 5841 5840 5840 5839 5839 5838 5838 5837 5837 5836 5836 5835 5835 5834 5834 5834
5847 5846 5845 5844 5844 5843 5843 5843 5843 5843 5842 5842 5842 5842 5842 5842 5842 5842 5842 5842 5841 5841 5840 5840 5839 5838 5838 5837 5837 5837 5836 5836 5835 5835 5834 5834 5833 5833 5832 5832 5831 5831 5830
5844 5843 5842 5841 5840 5840 5839 5839 5839 5839 5839 5838 5838 5838 5838 5838 5838 5838 5838 5838 5838 5837 5837 5836 5835 5835 5834 5834 5834 5834 5833 5833 5832 5832 5831 5831 5830 5829 5829 5828 5828 5827 5827
5841 5839 5838 5837 5836 5836 5835 5835 5835 5835 5835 5834 5835 5835 5835 5835 5834 5834 5834 5834 5834 5833 5833 5832 5832 5831 5831 5831 5830 5830 5830 5829 5829 5829 5828 5827 5826 5826 5825 5824 5824 5823 5823
5837 5836 5834 5833 5832 5832 5831 5832 5831 5831 5831 5831 5831 5831 5831 5831 5831 5830 5830 5830 5830 5830 5829 5829 5828 5828 5827 5827 5827 5826 5826 5826 5825 5825 5824 5824 5823 5822 5821 5821 5820 5819 5819
5834 5832 5831 5830 5829 5828 5828 5828 5827 5827 5827 5827 5827 5827 5827 5827 5827 5827 5826 5826 5826 5826 5825 5825 5825 5824 5824 5823 5823 5823 5823 5822 5822 5821 5820 5820 5819 5818 5817 5817 5816 5815 5814
Wind_Speed
2 2 2 2 3 2 2 2 2 3 3 3 3 3 3 4 4 4 4 5 4 5 5 5 5 5 5 5 5 5 5 5 4 4 4 4 3 3 3 4 4 4 4
1 2 2 3 3 3 2 3 3 3 3 3 3 3 4 4 4 5 5 5 5 6 6 6 6 6 6 6 5 6 5 5 5 5 5 5 5 5 5 5 5 5 5
1 2 2 3 3 3 3 3 3 4 3 4 4 4 4 4 5 5 5 5 6 6 7 6 6 6 6 6 5 6 6 6 6 6 6 6 6 6 6 6 6 6 6
2 3 2 3 3 4 3 3 3 4 4 4 4 5 5 5 5 5 6 6 6 7 7 7 7 7 7 7 6 6 7 7 7 7 6 7 7 7 7 7 7 7 7
3 3 3 3 4 4 4 4 4 4 4 4 5 6 6 6 6 6 7 7 8 8 8 8 7 8 8 7 7 7 8 7 8 8 7 8 8 8 8 8 8 8 8
4 4 4 4 5 5 5 5 5 5 5 5 6 6 6 6 6 7 7 8 9 9 9 8 8 9 9 9 9 9 9 9 9 9 9 9 9 9 9 8 8 8 9
5 5 5 5 5 6 6 6 6 6 6 6 6 6 6 6 7 7 7 8 9 9 9 9 9 9 9 10 10 10 9 9 9 9 9 9 9 9 9 9 8 9 9
6 6 6 6 6 6 7 6 6 6 6 6 7 6 6 6 7 7 7 8 8 9 9 10 9 9 10 10 10 9 10 9 9 9 9 10 10 10 10 10 10 10 10
7 7 7 7 7 7 7 7 7 6 7 7 7 7 7 7 7 7 7 8 8 8 8 9 9 9 9 9 10 10 10 10 10 10 10 10 11 11 10 10 10 10 10
8 8 8 8 8 8 8 8 7 7 7 7 7 7 7 8 7 7 8 8 8 8 8 9 9 10 10 10 10 10 10 10 10 10 10 10 10 10 10 10 10 10 10
8 9 9 9 9 9 9 9 9 8 8 8 7 7 8 8 8 8 7 8 8 8 8 9 9 9 10 10 10 10 10 10 10 10 10 10 10 11 10 10 11 11 10
9 9 9 9 9 9 9 9 9 9 9 8 8 8 8 8 8 8 8 9 9 8 9 9 9 9 9 9 9 10 10 10 10 10 10 10 10 10 10 10 10 11 11
9 9 9 10 10 10 10 10 10 10 10 10 9 9 9 9 9 8 8 9 9 9 9 9 9 9 9 10 10 10 11 11 11 11 10 10 10 10 10 10 10 10 10
9 9 10 10 10 10 10 10 10 11 11 11 10 10 9 9 9 9 9 10 10 10 10 10 10 9 10 10 10 11 11 11 10 11 10 10 10 9 9 9 10 10 9
10 10 10 10 10 10 10 11 11 11 11 11 11 10 10 10 10 11 11 11 11 11 10 10 10 10 10 10 10 11 11 11 11 11 10 10 10 9 10 10 10 9 9
11 11 11 11 11 11 11 11 11 11 12 12 11 11 11 11 11 11 11 11 11 11 11 11 11 11 11 11 11 11 11 11 12 11 11 11 10 10 10 10 10 10 10
11 11 11 12 12 13 13 12 12 12 12 12 12 12 11 11 11 11 11 11 11 11 11 11 12 12 12 12 12 11 11 11 11 11 11 11 11 11 11 10 10 11 11
11 12 12 12 13 13 13 13 13 13 13 13 13 12 12 11 11 11 11 11 11 11 11 12 12 12 12 12 12 12 12 11 11 11 11 11 11 12 12 12 12 12 12
12 12 12 13 13 13 13 13 14 14 14 14 13 13 12 12 12 12 12 12 12 11 12 12 13 13 13 12 12 13 12 12 11 11 12 11 12 12 13 13 12 13 12
13 13 13 13 13 14 14 14 14 14 14 13 13 14 14 13 13 13 13 12 13 13 13 13 13 13 13 13 13 13 13 13 12 12 12 12 12 12 12 12 13 13 13
13 13 13 13 13 14 14 14 14 14 14 14 14 14 13 14 13 14 14 13 13 14 13 13 13 13 13 13 13 13 13 13 13 14 13 12 12 12 12 13 13 13 14
14 13 13 14 14 14 14 14 14 14 13 14 13 13 13 14 14 13 14 14 14 14 14 13 13 13 13 13 13 13 13 13 13 14 14 14 13 13 13 14 14 14 14
14 14 14 14 15 14 14 14 14 14 14 15 14 13 13 13 14 14 13 14 14 14 14 14 13 13 14 13 13 13 13 13 13 13 14 14 14 14 14 15 15 15 15
14 14 14 14 14 14 14 14 14 15 14 14 14 14 14 13 14 14 14 14 14 14 14 14 14 14 14 13 13 13 14 14 14 14 14 14 14 14 14 14 15 15 15
13 13 13 14 14 14 14 14 15 15 15 15 15 15 15 14 14 14 14 14 14 14 14 14 14 14 15 14 13 14 14 14 14 14 14 14 14 14 15 15 15 15 16
13 13 14 14 14 14 14 15 15 15 15 15 15 15 15 15 15 15 15 15 15 15 14 15 15 15 15 15 14 14 14 15 15 16 15 15 14 15 15 15 16 16 16
Wind_Direction
43 38 21 8 359 358 7 10 3 1 357 355 354 349 342 339 335 335 330 332 336 334 328 324 325 324 322 320 322 320 320 326 320 311 306 310 306 300 298 285 271 267 265
27 3 352 348 346 342 342 340 342 342 346 338 334 329 326 327 326 327 329 326 323 323 323 317 315 315 313 310 309 311 308 311 307 299 292 296 294 293 292 281 273 271 271
349 331 332 337 341 340 333 335 334 333 330 326 324 316 311 315 317 319 323 325 323 321 318 313 312 313 312 309 308 308 305 303 300 299 295 292 292 291 287 281 275 272 273
325 326 324 326 325 325 328 331 330 324 320 318 320 315 308 308 311 310 310 316 320 319 317 313 312 312 310 305 305 303 300 298 294 295 294 294 294 290 284 281 279 275 273
304 311 316 313 309 311 315 315 314 313 312 310 309 312 307 303 304 303 304 306 309 311 311 312 308 307 307 305 303 300 298 295 292 293 294 293 292 290 287 284 279 277 274
294 295 298 303 303 303 308 310 305 300 305 307 305 304 303 304 304 302 300 300 302 305 305 306 304 302 301 300 300 296 295 293 290 291 292 290 288 287 287 285 280 277 275
287 290 288 294 304 303 302 300 301 297 300 300 301 297 298 299 299 300 302 301 299 299 301 300 297 297 300 301 300 297 294 294 292 292 290 290 287 286 284 281 282 279 277
277 280 281 289 297 302 304 299 300 296 298 299 299 296 294 297 295 297 300 305 301 300 297 295 294 292 299 301 300 301 300 295 294 293 289 289 288 285 281 277 279 279 276
277 275 275 280 288 296 298 295 298 296 298 297 297 297 291 294 292 290 293 297 300 301 301 295 295 295 298 299 300 299 300 295 294 293 291 289 288 284 279 278 280 278 276
272 272 273 274 279 286 290 294 297 296 294 291 292 296 294 295 294 292 290 291 294 296 296 296 297 296 295 294 296 298 296 294 294 293 294 292 289 284 281 279 280 276 274
269 271 273 275 279 282 285 287 290 287 284 284 284 288 291 293 293 293 291 290 292 292 294 296 296 294 292 294 296 298 297 296 296 296 294 292 289 287 282 278 278 278 274
272 273 275 276 281 283 282 281 284 283 282 279 278 282 288 288 288 288 290 291 292 290 294 295 294 293 293 294 293 295 296 297 300 296 294 292 288 287 282 277 280 281 276
276 276 276 277 280 282 281 280 282 283 279 275 276 278 282 284 285 291 290 291 292 291 292 294 293 292 291 291 292 294 296 296 296 296 294 291 289 288 283 280 279 279 278
279 277 276 276 276 275 276 278 280 281 276 276 276 277 279 281 284 288 291 293 291 289 291 292 292 292 291 290 291 292 293 293 293 294 294 289 286 286 284 283 282 282 282
277 279 278 278 275 275 277 277 278 280 277 276 278 278 277 279 282 283 285 289 290 289 291 291 290 291 291 290 289 291 291 287 288 289 289 287 285 281 279 280 281 284 285
277 279 278 278 276 273 275 278 279 280 280 278 278 277 278 278 279 279 281 284 287 288 288 288 287 289 292 292 291 291 289 287 288 286 285 285 284 281 282 283 285 287 284
280 279 278 278 276 273 273 273 276 278 278 280 280 277 275 277 277 276 279 283 286 287 287 287 289 291 293 292 292 291 289 288 287 287 286 284 281 280 283 285 284 284 284
281 281 278 277 275 274 273 271 272 273 274 275 278 278 274 274 275 273 278 282 285 286 286 286 286 289 290 291 290 291 291 288 284 286 285 282 280 279 280 281 286 290 290
286 284 280 278 277 275 274 274 273 272 271 272 272 273 274 271 270 271 273 279 283 284 285 284 284 287 286 286 287 288 288 287 284 286 286 285 284 282 281 283 286 289 288
287 284 280 278 276 276 276 275 274 274 273 273 274 270 269 270 271 273 276 279 281 282 283 284 285 284 283 284 284 285 286 285 284 285 286 287 288 285 282 283 286 289 288
288 286 282 278 276 276 276 275 273 271 272 273 274 269 267 268 269 270 274 279 278 279 283 284 284 284 282 283 283 285 287 286 285 283 282 282 286 285 284 283 284 286 287
290 287 284 280 279 278 276 274 274 272 272 273 272 268 265 266 267 267 270 274 276 277 279 280 280 283 285 284 282 283 287 288 288 286 284 284 284 284 283 283 282 283 286
291 288 285 283 280 277 275 274 274 273 270 270 270 270 268 267 268 269 271 273 275 277 278 279 279 280 282 283 282 282 284 284 289 288 286 285 285 284 283 284 284 284 286
292 290 288 285 280 276 274 273 272 271 270 268 269 271 270 270 268 269 272 274 274 275 277 277 278 279 279 280 281 283 284 284 285 286 287 287 285 285 286 287 285 283 285
294 291 290 287 284 279 275 272 273 273 273 269 269 273 273 272 272 270 272 274 273 274 274 274 274 277 276 276 279 282 284 284 284 284 286 287 285 285 287 288 287 284 283
298 294 291 287 284 280 276 274 274 276 276 271 270 270 272 272 272 271 272 273 271 272 273 273 272 276 274 274 276 280 282 283 286 286 285 286 285 285 287 287 286 285 284